This is the latest recevied weather packets stored in our database for station/object KE6LRO. If no packets are shown the sender has not sent any weather packets the latest 10 day(s).
| Time | Temp. | Humidity | Pressure | Rain* | Wind** | Luminosity | Snow |
|---|---|---|---|---|---|---|---|
| 1778030361 | 14.44° C | 32% | 1018.8 hPa | 0 mm | - | 72 W/m² | - |
| 1778030058 | 14.44° C | 33% | 1018.8 hPa | 0 mm | - | 81 W/m² | - |
| 1778029755 | 14.44° C | 33% | 1018.7 hPa | 0 mm | - | 91 W/m² | - |
| 1778029454 | 15° C | 31% | 1018.7 hPa | 0 mm | - | 103 W/m² | - |
| 1778029150 | 15° C | 32% | 1018.6 hPa | 0 mm | - | 115 W/m² | - |
| 1778028848 | 15° C | 32% | 1018.8 hPa | 0 mm | - | 126 W/m² | - |
| 1778028543 | 15° C | 32% | 1018.6 hPa | 0 mm | - | 139 W/m² | - |
| 1778028241 | 15° C | 30% | 1018.7 hPa | 0 mm | - | 152 W/m² | - |
| 1778027937 | 15.56° C | 31% | 1018.6 hPa | 0 mm | - | 164 W/m² | - |
| 1778027633 | 15° C | 31% | 1018.7 hPa | 0 mm | - | 178 W/m² | - |
| 1778027330 | 15.56° C | 31% | 1018.4 hPa | 0 mm | - | 191 W/m² | - |
| 1778027026 | 15.56° C | 30% | 1018.5 hPa | 0 mm | - | 204 W/m² | - |
| 1778026721 | 15.56° C | 31% | 1018.5 hPa | 0 mm | - | 219 W/m² | - |
| 1778026419 | 15.56° C | 32% | 1018.4 hPa | 0 mm | - | 232 W/m² | - |
| 1778026116 | 15.56° C | 31% | 1018.4 hPa | 0 mm | - | 247 W/m² | - |
| 1778025814 | 15.56° C | 31% | 1018.4 hPa | 0 mm | - | 260 W/m² | - |
| 1778025510 | 16.11° C | 30% | 1018.5 hPa | 0 mm | - | 275 W/m² | - |
| 1778025208 | 15.56° C | 29% | 1018.4 hPa | 0 mm | - | 289 W/m² | - |
| 1778024904 | 16.11° C | 29% | 1018.3 hPa | 0 mm | - | 309 W/m² | - |
| 1778024602 | 16.11° C | 29% | 1018.3 hPa | 0 mm | - | 321 W/m² | - |
| 1778024299 | 16.11° C | 29% | 1018.3 hPa | 0 mm | - | 334 W/m² | - |
| 1778023997 | 15.56° C | 31% | 1018.5 hPa | 0 mm | - | 347 W/m² | - |
| 1778023694 | 16.11° C | 30% | 1018.2 hPa | 0 mm | - | 362 W/m² | - |
| 1778023391 | 15° C | 30% | 1018.2 hPa | 0 mm | - | 375 W/m² | - |
| 1778023088 | 15.56° C | 29% | 1018.3 hPa | 0 mm | - | 389 W/m² | - |
* Rain latest hour (hover to see other rain measurements)
** Current wind speed in m/s (hover to see current wind gust speed)